Regional Weather Roundup
Issued by NWS

Current Version | Previous Version | Text Only | Print | Product List | Glossary On
Versions: 1 2 3 4 5 6 7 8 9 10 11 12 13 14 15 16 17 18 19 20 21 22 23 24 25 26 27
000
ASUS45 KCYS 171610
RWRWY

WYOMING REGIONAL WEATHER ROUNDUP
NATIONAL WEATHER SERVICE CHEYENNE WY
1000 AM MDT THU AUG 17 2017

NOTE:  "FAIR" INDICATES FEW OR NO CLOUDS BELOW 12,000 FEET
WITH NO SIGNIFICANT WEATHER AND/OR OBSTRUCTIONS TO VISIBILITY.

WYZ001-171700-
YELLOWSTONE NATIONAL PARK

CITY           SKY/WX    TMP DP  RH WIND       PRES   REMARKS
LK YELLOWSTONE   N/A     58  38  47 VRB5      30.31R
W YELLOWSTONE  NOT AVBL

$$
WYZ002>013-054>058-071-098>099-171700-
NORTHERN WYOMING

CITY           SKY/WX    TMP DP  RH WIND       PRES   REMARKS
JACKSON        FAIR      57  38  48 VRB3      30.24F
CODY           FAIR      70  38  31 CALM      30.11S
GREYBULL       PTSUNNY   65  41  41 E3        30.04S
WORLAND        FAIR      67  42  40 CALM      30.04F
SHERIDAN       FAIR      79  41  25 NW15      30.02R
BUFFALO          N/A    N/A N/A N/A MISG      30.06F
GILLETTE       FAIR      81  38  21 NW9       30.02R
HULETT         FAIR      75  45  33 SW9       30.02R
NEWCASTLE      FAIR      66  43  42 CALM      30.04S

$$
WYZ014>020-022>026-101>103-171700-
CENTRAL WYOMING

CITY           SKY/WX    TMP DP  RH WIND       PRES   REMARKS
BIG PINEY      FAIR      59  38  45 SE3       30.30S
PINEDALE       FAIR      63  36  36 CALM      30.31R
DUBOIS         FAIR      64  32  29 N13       30.24S
LANDER           N/A    N/A N/A N/A MISG      30.13F
RIVERTON       FAIR      71  36  27 SW9       30.14S
CASPER         FAIR      74  41  30 SW20      30.11F
DOUGLAS        FAIR      70  49  47 CALM      30.09S

$$
WYZ021-027>030-104>119-171700-
SOUTHERN WYOMING

CITY           SKY/WX    TMP DP  RH WIND       PRES   REMARKS
EVANSTON       FAIR      64  37  36 SW13      30.31S
KEMMERER         N/A     61  37  41 CALM      30.32S
FORT BRIDGER   FAIR      73  33  22 SW10      30.32S
ROCK SPRINGS   FAIR      66  42  41 CALM      30.28S
RAWLINS        FAIR      68  39  34 W20       30.26S
SARATOGA       FAIR      68  39  34 SE6       30.29S
LARAMIE        FAIR      69  38  32 W13       30.26S
CHEYENNE       FAIR      76  39  26 W16       30.18S
TORRINGTON     FAIR      67  51  56 CALM      30.05F
PINE BLUFFS    FAIR      72  52  49 S8        30.14S

$$




USA.gov is the U.S. government's official web portal to all federal, state and local government web resources and services.